| time (UTC) | temp F | wind direction | speed knots | gust knots | rain 1hr in | rain 24hr in | rain mn in | humidity % | barometer mb |
| 20260507183759 | 70 | 210 | 1.7 | 2.6 | 0.00 | 0.00 | 0.00 | 38 | 1016.0 |
| 20260507183256 | 69 | 321 | 2.6 | 4.3 | 0.00 | 0.00 | 0.00 | 37 | 1016.2 |
| 20260507182753 | 69 | 218 | 2.6 | 4.3 | 0.00 | 0.00 | 0.00 | 37 | 1016.2 |
| 20260507182248 | 70 | 225 | 2.6 | 4.3 | 0.00 | 0.00 | 0.00 | 38 | 1016.1 |
| 20260507181745 | 70 | 213 | 1.7 | 2.6 | 0.00 | 0.00 | 0.00 | 39 | 1016.4 |
| 20260507181241 | 68 | 224 | 1.7 | 1.7 | 0.00 | 0.00 | 0.00 | 39 | 1016.6 |
| 20260507180738 | 69 | 194 | 4.3 | 7.0 | 0.00 | 0.00 | 0.00 | 40 | 1016.7 |
| 20260507180235 | 68 | 183 | 2.6 | 4.3 | 0.00 | 0.00 | 0.00 | 39 | 1016.7 |
| 20260507175730 | 69 | 202 | 3.5 | 6.1 | 0.00 | 0.00 | 0.00 | 40 | 1016.5 |
| 20260507175228 | 69 | 352 | 1.7 | 1.7 | 0.00 | 0.00 | 0.00 | 40 | 1017.0 |
| 20260507174725 | 68 | 223 | 3.5 | 4.3 | 0.00 | 0.00 | 0.00 | 43 | 1017.0 |
| 20260507174223 | 67 | 233 | 4.3 | 7.0 | 0.00 | 0.00 | 0.00 | 41 | 1017.0 |
| 20260507173720 | 66 | 192 | 2.6 | 2.6 | 0.00 | 0.00 | 0.00 | 42 | 1017.2 |
| 20260507173217 | 66 | 174 | 1.7 | 1.7 | 0.00 | 0.00 | 0.00 | 42 | 1017.4 |
| 20260507172714 | 66 | 225 | 3.5 | 4.3 | 0.00 | 0.00 | 0.00 | 44 | 1017.4 |
| 20260507172210 | 66 | 191 | 6.1 | 8.7 | 0.00 | 0.00 | 0.00 | 44 | 1017.5 |
| 20260507171705 | 66 | 220 | 2.6 | 4.3 | 0.00 | 0.00 | 0.00 | 45 | 1017.5 |
| 20260507171203 | 66 | 280 | 2.6 | 2.6 | 0.00 | 0.00 | 0.00 | 45 | 1017.7 |
| 20260507170659 | 66 | 313 | 1.7 | 2.6 | 0.00 | 0.00 | 0.00 | 48 | 1017.9 |
| 20260507170156 | 65 | 222 | 5.2 | 7.8 | 0.00 | 0.00 | 0.00 | 46 | 1017.8 |
| 20260507165652 | 64 | 211 | 2.6 | 2.6 | 0.00 | 0.00 | 0.00 | 47 | 1018.0 |
| 20260507165148 | 64 | 225 | 3.5 | 7.0 | 0.00 | 0.00 | 0.00 | 49 | 1018.2 |
| 20260507164644 | 64 | 192 | 7.0 | 9.6 | 0.00 | 0.00 | 0.00 | 48 | 1018.3 |
| 20260507164142 | 63 | 143 | 2.6 | 4.3 | 0.00 | 0.00 | 0.00 | 50 | 1018.4 |
| 20260507163638 | 63 | 213 | 4.3 | 6.1 | 0.00 | 0.00 | 0.00 | 49 | 1018.5 |
| 20260507163137 | 64 | 218 | 3.5 | 4.3 | 0.00 | 0.00 | 0.00 | 50 | 1018.5 |
| 20260507162632 | 63 | 321 | 2.6 | 2.6 | 0.00 | 0.00 | 0.00 | 52 | 1018.5 |
| 20260507162128 | 63 | 258 | 3.5 | 6.1 | 0.00 | 0.00 | 0.00 | 52 | 1018.4 |
| 20260507161625 | 62 | 271 | 4.3 | 9.6 | 0.00 | 0.00 | 0.00 | 53 | 1018.5 |
| 20260507161122 | 62 | 115 | 3.5 | 5.2 | 0.00 | 0.00 | 0.00 | 52 | 1018.7 |
| 20260507160618 | 61 | 175 | 1.7 | 2.6 | 0.00 | 0.00 | 0.00 | 55 | 1018.8 |
| 20260507160114 | 61 | 215 | 6.1 | 11.3 | 0.00 | 0.00 | 0.00 | 55 | 1018.7 |
| 20260507155609 | 61 | 234 | 0.9 | 2.6 | 0.00 | 0.00 | 0.00 | 56 | 1018.9 |
| 20260507155107 | 61 | 213 | 3.5 | 5.2 | 0.00 | 0.00 | 0.00 | 56 | 1018.7 |
| 20260507154604 | 61 | 192 | 3.5 | 7.0 | 0.00 | 0.00 | 0.00 | 56 | 1018.7 |
| 20260507154101 | 60 | 167 | 1.7 | 2.6 | 0.00 | 0.00 | 0.00 | 58 | 1018.7 |
| 20260507153557 | 60 | 166 | 6.1 | 9.6 | 0.00 | 0.00 | 0.00 | 56 | 1018.6 |
| 20260507153054 | 60 | 189 | 3.5 | 6.1 | 0.00 | 0.00 | 0.00 | 57 | 1018.7 |
| 20260507152550 | 60 | 185 | 2.6 | 2.6 | 0.00 | 0.00 | 0.00 | 58 | 1018.9 |
| 20260507152046 | 60 | 202 | 4.3 | 6.1 | 0.00 | 0.00 | 0.00 | 58 | 1018.9 |
| 20260507151542 | 60 | 258 | 2.6 | 4.3 | 0.00 | 0.00 | 0.00 | 59 | 1018.8 |
| 20260507151040 | 59 | 172 | 0.9 | 1.7 | 0.00 | 0.00 | 0.00 | 60 | 1019.1 |
| 20260507150537 | 58 | 248 | 3.5 | 4.3 | 0.00 | 0.00 | 0.00 | 63 | 1019.2 |
| 20260507150033 | 58 | 173 | 1.7 | 1.7 | 0.00 | 0.00 | 0.00 | 62 | 1019.3 |
| 20260507145528 | 58 | 223 | 4.3 | 6.1 | 0.00 | 0.00 | 0.00 | 63 | 1019.3 |
| 20260507145026 | 57 | 246 | 2.6 | 4.3 | 0.00 | 0.00 | 0.00 | 64 | 1019.2 |
| 20260507144522 | 57 | 218 | 3.5 | 4.3 | 0.00 | 0.00 | 0.00 | 66 | 1019.2 |
| 20260507144020 | 56 | 200 | 1.7 | 1.7 | 0.00 | 0.00 | 0.00 | 67 | 1019.3 |
| 20260507143517 | 56 | 267 | 2.6 | 2.6 | 0.00 | 0.00 | 0.00 | 67 | 1019.3 |
| 20260507143015 | 55 | 214 | 1.7 | 1.7 | 0.00 | 0.00 | 0.00 | 69 | 1019.6 |
| 20260507142509 | 55 | 242 | 3.5 | 6.1 | 0.00 | 0.00 | 0.00 | 69 | 1019.7 |
| 20260507142007 | 54 | 170 | 3.5 | 6.1 | 0.00 | 0.00 | 0.00 | 70 | 1019.8 |
| 20260507141503 | 54 | 98 | 2.6 | 2.6 | 0.00 | 0.00 | 0.00 | 71 | 1019.8 |
| 20260507140959 | 54 | 155 | 1.7 | 2.6 | 0.00 | 0.00 | 0.00 | 71 | 1019.9 |
| 20260507140456 | 54 | 233 | 2.6 | 4.3 | 0.00 | 0.00 | 0.00 | 73 | 1019.8 |
| 20260507135954 | 53 | 249 | 3.5 | 4.3 | 0.00 | 0.00 | 0.00 | 73 | 1019.9 |
| 20260507135450 | 53 | 154 | 2.6 | 4.3 | 0.00 | 0.00 | 0.00 | 75 | 1019.9 |
| 20260507134948 | 52 | 191 | 1.7 | 2.6 | 0.00 | 0.00 | 0.00 | 77 | 1019.9 |
| 20260507134444 | 52 | 154 | 0.9 | 0.9 | 0.00 | 0.00 | 0.00 | 78 | 1019.8 |
| 20260507133940 | 51 | 283 | 2.6 | 4.3 | 0.00 | 0.00 | 0.00 | 80 | 1020.0 |
| 20260507133436 | 51 | 182 | 0.9 | 0.9 | 0.00 | 0.00 | 0.00 | 80 | 1020.1 |
| 20260507132935 | 50 | 165 | 0.9 | 0.9 | 0.00 | 0.00 | 0.00 | 82 | 1019.9 |
| 20260507132431 | 50 | 258 | 1.7 | 2.6 | 0.00 | 0.00 | 0.00 | 83 | 1020.2 |
| 20260507131927 | 49 | 170 | 0.9 | 1.7 | 0.00 | 0.00 | 0.00 | 85 | 1020.1 |
| 20260507131425 | 49 | 263 | 1.7 | 2.6 | 0.00 | 0.00 | 0.00 | 85 | 1020.1 |
| 20260507130922 | 48 | 173 | 0.0 | 0.9 | 0.00 | 0.00 | 0.00 | 86 | 1019.9 |
| 20260507130419 | 48 | 225 | 1.7 | 1.7 | 0.00 | 0.00 | 0.00 | 86 | 1020.2 |
| 20260507125917 | 48 | 185 | 1.7 | 1.7 | 0.00 | 0.00 | 0.00 | 87 | 1020.1 |
| 20260507125415 | 47 | 178 | 0.0 | 0.0 | 0.00 | 0.00 | 0.00 | 89 | 1020.0 |
| 20260507124912 | 46 | 147 | 0.0 | 0.0 | 0.00 | 0.00 | 0.00 | 91 | 1020.0 |
| 20260507124408 | 45 | 154 | 0.0 | 0.0 | 0.00 | 0.00 | 0.00 | 91 | 1019.9 |
| 20260507123907 | 45 | 171 | 0.0 | 0.9 | 0.00 | 0.00 | 0.00 | 92 | 1020.1 |
| 20260507123403 | 44 | 183 | 1.7 | 1.7 | 0.00 | 0.00 | 0.00 | 92 | 1019.8 |
| 20260507122900 | 44 | 149 | 0.0 | 0.0 | 0.00 | 0.00 | 0.00 | 93 | 1020.0 |
| 20260507122355 | 43 | 141 | 0.0 | 0.0 | 0.00 | 0.00 | 0.00 | 93 | 1019.8 |
| 20260507121852 | 43 | 146 | 0.0 | 0.0 | 0.00 | 0.00 | 0.00 | 93 | 1019.7 |
| 20260507121347 | 42 | 141 | 0.0 | 0.0 | 0.00 | 0.00 | 0.00 | 93 | 1019.9 |
| 20260507120844 | 42 | 137 | 0.0 | 0.0 | 0.00 | 0.00 | 0.00 | 93 | 1019.9 |
| 20260507120340 | 41 | 136 | 0.0 | 0.0 | 0.00 | 0.00 | 0.00 | 93 | 1019.7 |
| 20260507115837 | 41 | 136 | 0.0 | 0.0 | 0.00 | 0.00 | 0.00 | 92 | 1019.8 |
| 20260507115332 | 41 | 136 | 0.0 | 0.0 | 0.00 | 0.00 | 0.00 | 92 | 1019.7 |
| 20260507114828 | 41 | 136 | 0.0 | 0.0 | 0.00 | 0.00 | 0.00 | 92 | 1020.0 |
| 20260507114326 | 41 | 136 | 0.0 | 0.0 | 0.00 | 0.00 | 0.00 | 92 | 1019.5 |
| 20260507113823 | 41 | 136 | 0.0 | 0.0 | 0.00 | 0.00 | 0.00 | 92 | 1019.7 |
| 20260507113320 | 41 | 136 | 0.0 | 0.0 | 0.00 | 0.00 | 0.00 | 91 | 1019.6 |
| 20260507112818 | 42 | 136 | 0.0 | 0.0 | 0.00 | 0.00 | 0.00 | 91 | 1019.7 |
| 20260507112314 | 42 | 137 | 0.0 | 0.0 | 0.00 | 0.00 | 0.00 | 91 | 1019.8 |
| 20260507111812 | 42 | 137 | 0.0 | 0.0 | 0.00 | 0.00 | 0.00 | 91 | 1019.7 |
| 20260507111308 | 43 | 138 | 0.0 | 0.0 | 0.00 | 0.00 | 0.00 | 91 | 1019.7 |
| 20260507110804 | 43 | 140 | 0.0 | 0.0 | 0.00 | 0.00 | 0.00 | 91 | 1019.5 |
| 20260507110301 | 43 | 139 | 0.0 | 0.0 | 0.00 | 0.00 | 0.00 | 91 | 1019.6 |
| 20260507105758 | 44 | 139 | 0.0 | 0.0 | 0.00 | 0.00 | 0.00 | 91 | 1019.6 |
| 20260507105254 | 44 | 140 | 0.0 | 0.0 | 0.00 | 0.00 | 0.00 | 90 | 1019.5 |
| 20260507104752 | 44 | 141 | 0.0 | 0.0 | 0.00 | 0.00 | 0.00 | 90 | 1019.5 |
| 20260507104248 | 44 | 139 | 0.0 | 0.0 | 0.00 | 0.00 | 0.00 | 90 | 1019.3 |
| 20260507103744 | 44 | 139 | 0.0 | 0.0 | 0.00 | 0.00 | 0.00 | 90 | 1019.8 |
| 20260507103240 | 44 | 142 | 0.0 | 0.0 | 0.00 | 0.00 | 0.00 | 90 | 1019.7 |
| 20260507102737 | 45 | 140 | 0.0 | 0.0 | 0.00 | 0.00 | 0.00 | 89 | 1019.7 |
| 20260507102234 | 45 | 142 | 0.0 | 0.0 | 0.00 | 0.00 | 0.00 | 89 | 1019.8 |
| 20260507101730 | 45 | 141 | 0.0 | 0.0 | 0.00 | 0.00 | 0.00 | 89 | 1020.1 |
| 20260507101225 | 45 | 140 | 0.0 | 0.0 | 0.00 | 0.00 | 0.00 | 89 | 1019.9 |
| 20260507100722 | 45 | 136 | 0.0 | 0.0 | 0.00 | 0.00 | 0.00 | 89 | 1020.0 |
| 20260507100221 | 45 | 137 | 0.0 | 0.0 | 0.00 | 0.00 | 0.00 | 89 | 1020.3 |
| 20260507095718 | 45 | 135 | 0.0 | 0.0 | 0.00 | 0.00 | 0.00 | 89 | 1020.1 |
| 20260507095215 | 45 | 136 | 0.0 | 0.0 | 0.00 | 0.00 | 0.00 | 89 | 1020.1 |
| 20260507094712 | 45 | 136 | 0.0 | 0.0 | 0.00 | 0.00 | 0.00 | 89 | 1020.0 |
| 20260507094209 | 45 | 138 | 0.0 | 0.0 | 0.00 | 0.00 | 0.00 | 89 | 1019.8 |
| 20260507093705 | 45 | 137 | 0.0 | 0.0 | 0.00 | 0.00 | 0.00 | 89 | 1020.0 |
| 20260507093204 | 46 | 138 | 0.0 | 0.0 | 0.00 | 0.00 | 0.00 | 89 | 1020.1 |
| 20260507092701 | 46 | 139 | 0.0 | 0.0 | 0.00 | 0.00 | 0.00 | 89 | 1020.2 |
| 20260507092157 | 46 | 139 | 0.0 | 0.0 | 0.00 | 0.00 | 0.00 | 89 | 1019.9 |
| 20260507091654 | 46 | 144 | 0.0 | 0.0 | 0.00 | 0.00 | 0.00 | 89 | 1020.3 |
| 20260507091150 | 46 | 131 | 0.0 | 0.0 | 0.00 | 0.00 | 0.00 | 89 | 1020.3 |
| 20260507090645 | 47 | 131 | 0.0 | 0.0 | 0.00 | 0.00 | 0.00 | 88 | 1020.1 |
| 20260507090143 | 47 | 131 | 0.0 | 0.0 | 0.00 | 0.00 | 0.00 | 88 | 1020.2 |
| 20260507085640 | 47 | 141 | 0.0 | 0.0 | 0.00 | 0.00 | 0.00 | 88 | 1020.3 |
| 20260507085137 | 47 | 135 | 0.0 | 0.0 | 0.00 | 0.00 | 0.00 | 88 | 1020.2 |
| 20260507084634 | 48 | 135 | 0.0 | 0.0 | 0.00 | 0.00 | 0.00 | 87 | 1020.2 |
| 20260507084130 | 48 | 135 | 0.0 | 0.0 | 0.00 | 0.00 | 0.00 | 86 | 1020.1 |
| 20260507083627 | 48 | 145 | 0.0 | 0.0 | 0.00 | 0.00 | 0.00 | 85 | 1019.9 |
| 20260507083124 | 49 | 130 | 0.0 | 0.0 | 0.00 | 0.00 | 0.00 | 85 | 1020.0 |
| 20260507082619 | 49 | 133 | 0.0 | 0.0 | 0.00 | 0.00 | 0.00 | 84 | 1020.3 |
| 20260507082116 | 50 | 134 | 0.0 | 0.0 | 0.00 | 0.00 | 0.00 | 83 | 1020.0 |
| 20260507081613 | 50 | 140 | 0.0 | 0.0 | 0.00 | 0.00 | 0.00 | 82 | 1020.3 |
| 20260507081109 | 50 | 134 | 0.0 | 0.0 | 0.00 | 0.00 | 0.00 | 82 | 1020.2 |
| 20260507080606 | 50 | 133 | 0.0 | 0.0 | 0.00 | 0.00 | 0.00 | 82 | 1020.6 |
| 20260507075557 | 50 | 140 | 0.0 | 0.0 | 0.00 | 0.00 | 0.00 | 82 | 1020.4 |
| 20260507075054 | 50 | 134 | 0.0 | 0.0 | 0.00 | 0.00 | 0.00 | 82 | 1020.5 |
| 20260507074551 | 50 | 130 | 0.0 | 0.0 | 0.00 | 0.00 | 0.00 | 82 | 1020.6 |
| 20260507074049 | 50 | 139 | 0.0 | 0.0 | 0.00 | 0.00 | 0.00 | 82 | 1020.6 |
| 20260507073545 | 50 | 143 | 0.0 | 0.0 | 0.00 | 0.00 | 0.00 | 82 | 1020.4 |
| 20260507073041 | 50 | 142 | 0.0 | 0.0 | 0.00 | 0.00 | 0.00 | 82 | 1020.5 |
| 20260507072539 | 50 | 132 | 0.0 | 0.0 | 0.00 | 0.00 | 0.00 | 82 | 1020.5 |
| 20260507072036 | 50 | 130 | 0.0 | 0.0 | 0.00 | 0.00 | 0.00 | 83 | 1020.8 |
| 20260507071533 | 50 | 130 | 0.0 | 0.0 | 0.00 | 0.00 | 0.00 | 83 | 1020.8 |
| 20260507071030 | 50 | 129 | 0.0 | 0.0 | 0.00 | 0.00 | 0.00 | 81 | 1020.7 |
| 20260507070527 | 50 | 129 | 0.0 | 0.0 | 0.00 | 0.00 | 0.00 | 80 | 1021.1 |
| 20260507070024 | 50 | 129 | 0.0 | 0.0 | 0.00 | 0.00 | 0.00 | 80 | 1020.9 |
| 20260507065520 | 50 | 129 | 0.0 | 0.0 | 0.00 | 0.00 | 0.00 | 80 | 1021.0 |
| 20260507065018 | 50 | 129 | 0.0 | 0.0 | 0.00 | 0.00 | 0.00 | 79 | 1021.0 |
| 20260507064515 | 50 | 130 | 0.0 | 0.0 | 0.00 | 0.00 | 0.00 | 79 | 1021.1 |
| 20260507064014 | 50 | 130 | 0.0 | 0.0 | 0.00 | 0.00 | 0.00 | 79 | 1021.1 |
| 20260507063510 | 50 | 131 | 0.0 | 0.0 | 0.00 | 0.00 | 0.00 | 79 | 1021.2 |
| 20260507063008 | 50 | 130 | 0.0 | 0.0 | 0.00 | 0.00 | 0.00 | 80 | 1021.0 |
| 20260507062504 | 50 | 130 | 0.0 | 0.0 | 0.00 | 0.00 | 0.00 | 80 | 1020.8 |
| 20260507062002 | 50 | 130 | 0.0 | 0.0 | 0.00 | 0.00 | 0.00 | 80 | 1021.0 |
| 20260507061459 | 50 | 130 | 0.0 | 0.0 | 0.00 | 0.00 | 0.00 | 81 | 1021.0 |
| 20260507060958 | 50 | 130 | 0.0 | 0.0 | 0.00 | 0.00 | 0.00 | 79 | 1020.9 |
| 20260507060454 | 50 | 130 | 0.0 | 0.0 | 0.00 | 0.00 | 0.00 | 81 | 1020.8 |
| 20260507055951 | 50 | 130 | 0.0 | 0.0 | 0.00 | 0.00 | 0.00 | 80 | 1021.0 |
| 20260507055446 | 50 | 130 | 0.0 | 0.0 | 0.00 | 0.00 | 0.00 | 80 | 1020.9 |
| 20260507054943 | 50 | 130 | 0.0 | 0.0 | 0.00 | 0.00 | 0.00 | 78 | 1021.0 |
| 20260507054439 | 50 | 130 | 0.0 | 0.0 | 0.00 | 0.00 | 0.00 | 79 | 1021.1 |
| 20260507053936 | 50 | 127 | 0.0 | 0.0 | 0.00 | 0.00 | 0.00 | 79 | 1021.5 |
| 20260507053434 | 50 | 127 | 0.0 | 0.0 | 0.00 | 0.00 | 0.00 | 80 | 1021.5 |
| 20260507052932 | 50 | 127 | 0.0 | 0.0 | 0.00 | 0.00 | 0.00 | 81 | 1020.9 |
| 20260507052430 | 50 | 127 | 0.0 | 0.0 | 0.00 | 0.00 | 0.00 | 80 | 1021.2 |
| 20260507051927 | 50 | 127 | 0.0 | 0.0 | 0.00 | 0.00 | 0.00 | 82 | 1021.3 |
| 20260507051424 | 50 | 127 | 0.0 | 0.0 | 0.00 | 0.00 | 0.00 | 83 | 1021.0 |
| 20260507050921 | 50 | 127 | 0.0 | 0.0 | 0.00 | 0.00 | 0.00 | 82 | 1021.0 |
| 20260507050418 | 50 | 127 | 0.0 | 0.0 | 0.00 | 0.00 | 0.00 | 82 | 1021.1 |
| 20260507045915 | 50 | 127 | 0.0 | 0.0 | 0.00 | 0.00 | 0.00 | 82 | 1021.1 |
| 20260507045411 | 50 | 127 | 0.0 | 0.0 | 0.00 | 0.00 | 0.00 | 80 | 1021.2 |
| 20260507044908 | 49 | 126 | 0.0 | 0.0 | 0.00 | 0.00 | 0.00 | 82 | 1021.0 |
| 20260507044405 | 49 | 126 | 0.0 | 0.0 | 0.00 | 0.00 | 0.00 | 82 | 1020.9 |
| 20260507043901 | 49 | 127 | 0.0 | 0.0 | 0.00 | 0.00 | 0.00 | 82 | 1021.0 |
| 20260507043357 | 49 | 127 | 0.0 | 0.0 | 0.00 | 0.00 | 0.00 | 81 | 1020.9 |
| 20260507042854 | 49 | 127 | 0.0 | 0.0 | 0.00 | 0.00 | 0.00 | 82 | 1020.9 |
| 20260507042350 | 49 | 127 | 0.0 | 0.0 | 0.00 | 0.00 | 0.00 | 82 | 1020.9 |
| 20260507041846 | 49 | 127 | 0.0 | 0.0 | 0.00 | 0.00 | 0.00 | 80 | 1020.5 |
| 20260507041343 | 50 | 127 | 0.0 | 0.0 | 0.00 | 0.00 | 0.00 | 78 | 1020.8 |
| 20260507040841 | 50 | 127 | 0.0 | 0.0 | 0.00 | 0.00 | 0.00 | 79 | 1020.7 |
| 20260507040336 | 50 | 127 | 0.0 | 0.0 | 0.00 | 0.00 | 0.00 | 77 | 1020.8 |
| 20260507035832 | 51 | 127 | 0.0 | 0.0 | 0.00 | 0.00 | 0.00 | 76 | 1020.6 |
| 20260507035328 | 51 | 127 | 0.0 | 0.0 | 0.00 | 0.00 | 0.00 | 74 | 1020.8 |
| 20260507034826 | 51 | 127 | 0.0 | 0.0 | 0.00 | 0.00 | 0.00 | 74 | 1020.8 |
| 20260507034322 | 52 | 127 | 0.0 | 0.0 | 0.00 | 0.00 | 0.00 | 74 | 1021.0 |
| 20260507033821 | 52 | 127 | 0.0 | 0.0 | 0.00 | 0.00 | 0.00 | 74 | 1020.7 |
| 20260507033318 | 52 | 126 | 0.0 | 0.0 | 0.00 | 0.00 | 0.00 | 73 | 1021.1 |
| 20260507032815 | 52 | 127 | 0.0 | 0.0 | 0.00 | 0.00 | 0.00 | 74 | 1020.9 |
| 20260507032311 | 52 | 127 | 0.0 | 0.0 | 0.00 | 0.00 | 0.00 | 75 | 1020.8 |
| 20260507031808 | 52 | 127 | 0.0 | 0.0 | 0.00 | 0.00 | 0.00 | 73 | 1020.6 |
| 20260507031305 | 53 | 127 | 0.0 | 0.0 | 0.00 | 0.00 | 0.00 | 71 | 1020.6 |
| 20260507030801 | 53 | 127 | 0.0 | 0.0 | 0.00 | 0.00 | 0.00 | 71 | 1020.7 |
| 20260507030259 | 53 | 127 | 0.0 | 0.0 | 0.00 | 0.00 | 0.00 | 72 | 1020.6 |
| 20260507025756 | 53 | 128 | 0.0 | 0.0 | 0.00 | 0.00 | 0.00 | 75 | 1020.7 |
| 20260507025253 | 53 | 128 | 0.0 | 0.0 | 0.00 | 0.00 | 0.00 | 74 | 1020.6 |
| 20260507024751 | 53 | 127 | 0.0 | 0.0 | 0.00 | 0.00 | 0.00 | 73 | 1020.6 |
| 20260507024248 | 53 | 127 | 0.0 | 0.0 | 0.00 | 0.00 | 0.00 | 71 | 1020.7 |
| 20260507023743 | 53 | 127 | 0.0 | 0.0 | 0.00 | 0.00 | 0.00 | 69 | 1020.6 |
| 20260507023240 | 53 | 127 | 0.0 | 0.0 | 0.00 | 0.00 | 0.00 | 69 | 1020.5 |
| 20260507022738 | 53 | 127 | 0.0 | 0.0 | 0.00 | 0.00 | 0.00 | 71 | 1020.5 |
| 20260507022233 | 53 | 127 | 0.0 | 0.0 | 0.00 | 0.00 | 0.00 | 70 | 1020.6 |
| 20260507021730 | 54 | 127 | 0.0 | 0.0 | 0.00 | 0.00 | 0.00 | 70 | 1020.5 |
| 20260507021225 | 54 | 127 | 0.0 | 0.0 | 0.00 | 0.00 | 0.00 | 68 | 1020.3 |
| 20260507020724 | 54 | 127 | 0.0 | 0.0 | 0.00 | 0.00 | 0.00 | 68 | 1020.3 |
| 20260507020220 | 54 | 129 | 0.0 | 0.0 | 0.00 | 0.00 | 0.00 | 70 | 1020.3 |
| 20260507015718 | 54 | 130 | 0.0 | 0.0 | 0.00 | 0.00 | 0.00 | 69 | 1020.2 |
| 20260507015215 | 54 | 130 | 0.0 | 0.0 | 0.00 | 0.00 | 0.00 | 69 | 1020.0 |
| 20260507014712 | 55 | 130 | 0.0 | 0.0 | 0.00 | 0.00 | 0.00 | 69 | 1020.0 |
| 20260507014208 | 55 | 130 | 0.0 | 0.0 | 0.00 | 0.00 | 0.00 | 67 | 1019.9 |
| 20260507013705 | 55 | 130 | 0.0 | 0.0 | 0.00 | 0.00 | 0.00 | 67 | 1020.0 |
| 20260507013202 | 55 | 130 | 0.0 | 0.0 | 0.00 | 0.00 | 0.00 | 66 | 1019.7 |
| 20260507012659 | 55 | 130 | 0.0 | 0.0 | 0.00 | 0.00 | 0.00 | 64 | 1019.7 |
| 20260507012155 | 55 | 130 | 0.0 | 0.0 | 0.00 | 0.00 | 0.00 | 63 | 1019.7 |
| 20260507011653 | 56 | 130 | 0.0 | 0.0 | 0.00 | 0.00 | 0.00 | 59 | 1019.6 |
| 20260507011149 | 56 | 130 | 0.0 | 0.0 | 0.00 | 0.00 | 0.00 | 59 | 1019.3 |
| 20260507010644 | 56 | 130 | 0.0 | 0.0 | 0.00 | 0.00 | 0.00 | 58 | 1019.5 |
| 20260507010140 | 56 | 130 | 0.0 | 0.0 | 0.00 | 0.00 | 0.00 | 58 | 1019.7 |
| 20260507005637 | 57 | 131 | 0.0 | 0.0 | 0.00 | 0.00 | 0.00 | 57 | 1019.5 |
| 20260507005133 | 57 | 133 | 0.0 | 0.0 | 0.00 | 0.00 | 0.00 | 57 | 1019.5 |
| 20260507004630 | 57 | 117 | 0.0 | 0.0 | 0.00 | 0.00 | 0.00 | 56 | 1019.7 |
| 20260507004128 | 58 | 131 | 0.0 | 0.0 | 0.00 | 0.00 | 0.00 | 55 | 1019.5 |
| 20260507003624 | 58 | 139 | 0.0 | 0.0 | 0.00 | 0.00 | 0.00 | 54 | 1019.6 |
| 20260507003120 | 59 | 129 | 0.0 | 0.0 | 0.00 | 0.00 | 0.00 | 53 | 1019.6 |
| 20260507002616 | 59 | 117 | 0.0 | 0.0 | 0.00 | 0.00 | 0.00 | 53 | 1019.3 |
| 20260507002111 | 59 | 130 | 0.0 | 0.0 | 0.00 | 0.00 | 0.00 | 54 | 1019.5 |
| 20260507001608 | 59 | 128 | 0.0 | 0.0 | 0.00 | 0.00 | 0.00 | 53 | 1019.3 |
| 20260507001106 | 59 | 90 | 0.9 | 0.9 | 0.00 | 0.00 | 0.00 | 53 | 1019.5 |
| 20260507000602 | 59 | 117 | 0.0 | 0.0 | 0.00 | 0.00 | 0.00 | 53 | 1019.5 |
| 20260507000058 | 60 | 100 | 0.9 | 0.9 | 0.00 | 0.00 | 0.00 | 51 | 1019.6 |
| 20260506235555 | 61 | 159 | 0.9 | 0.9 | 0.00 | 0.00 | 0.00 | 50 | 1019.3 |
| 20260506235050 | 60 | 120 | 0.0 | 0.0 | 0.00 | 0.00 | 0.00 | 51 | 1019.1 |
| 20260506234548 | 59 | 94 | 0.9 | 0.9 | 0.00 | 0.00 | 0.00 | 51 | 1019.1 |
| 20260506234045 | 59 | 127 | 0.0 | 0.0 | 0.00 | 0.00 | 0.00 | 52 | 1019.3 |
| 20260506233542 | 59 | 121 | 0.0 | 0.0 | 0.00 | 0.00 | 0.00 | 52 | 1019.1 |
| 20260506233039 | 59 | 41 | 0.9 | 1.7 | 0.00 | 0.00 | 0.00 | 49 | 1019.2 |
| 20260506232535 | 59 | 359 | 0.9 | 1.7 | 0.00 | 0.00 | 0.00 | 50 | 1019.2 |
| 20260506232030 | 60 | 123 | 0.0 | 0.0 | 0.00 | 0.00 | 0.00 | 49 | 1019.0 |
| 20260506231528 | 62 | 120 | 0.0 | 0.9 | 0.00 | 0.00 | 0.00 | 49 | 1019.1 |
| 20260506231026 | 61 | 153 | 0.9 | 0.9 | 0.00 | 0.00 | 0.00 | 49 | 1018.9 |
| 20260506230522 | 60 | 86 | 1.7 | 1.7 | 0.00 | 0.00 | 0.00 | 51 | 1019.1 |
| 20260506230020 | 60 | 116 | 0.0 | 0.0 | 0.00 | 0.00 | 0.00 | 51 | 1019.1 |
| 20260506225516 | 61 | 129 | 0.0 | 0.0 | 0.00 | 0.00 | 0.00 | 50 | 1019.2 |
| 20260506225007 | 61 | 124 | 0.0 | 0.0 | 0.00 | 0.00 | 0.00 | 49 | 1019.2 |
| 20260506224504 | 61 | 115 | 0.0 | 0.9 | 0.00 | 0.00 | 0.00 | 49 | 1019.2 |
| 20260506224001 | 62 | 131 | 0.0 | 0.0 | 0.00 | 0.00 | 0.00 | 48 | 1019.0 |
| 20260506223456 | 61 | 119 | 0.0 | 0.9 | 0.00 | 0.00 | 0.00 | 51 | 1018.9 |
| 20260506222954 | 61 | 279 | 0.9 | 1.7 | 0.00 | 0.00 | 0.00 | 50 | 1018.9 |
| 20260506222450 | 61 | 119 | 0.0 | 0.0 | 0.00 | 0.00 | 0.00 | 51 | 1018.9 |
| 20260506221947 | 62 | 115 | 0.0 | 0.9 | 0.00 | 0.00 | 0.00 | 52 | 1018.8 |
| 20260506221444 | 63 | 353 | 5.2 | 6.1 | 0.00 | 0.00 | 0.00 | 47 | 1018.9 |
| 20260506220942 | 63 | 23 | 1.7 | 2.6 | 0.00 | 0.00 | 0.00 | 46 | 1018.9 |
| 20260506220437 | 62 | 121 | 0.0 | 0.0 | 0.00 | 0.00 | 0.00 | 47 | 1019.0 |
| 20260506215934 | 62 | 115 | 0.9 | 0.9 | 0.00 | 0.00 | 0.00 | 48 | 1019.0 |
| 20260506215430 | 64 | 136 | 0.0 | 0.0 | 0.00 | 0.00 | 0.00 | 46 | 1018.9 |
| 20260506214926 | 64 | 135 | 0.0 | 0.9 | 0.00 | 0.00 | 0.00 | 45 | 1018.8 |
| 20260506214423 | 64 | 141 | 0.0 | 0.9 | 0.00 | 0.00 | 0.00 | 43 | 1019.2 |
| 20260506213921 | 64 | 130 | 0.0 | 0.9 | 0.00 | 0.00 | 0.00 | 45 | 1019.0 |
| 20260506213418 | 64 | 51 | 2.6 | 4.3 | 0.00 | 0.00 | 0.00 | 45 | 1019.2 |
| 20260506212916 | 63 | 327 | 1.7 | 4.3 | 0.00 | 0.00 | 0.00 | 45 | 1019.1 |
| 20260506212411 | 64 | 102 | 0.9 | 1.7 | 0.00 | 0.00 | 0.00 | 45 | 1019.2 |
| 20260506211906 | 66 | 204 | 0.9 | 1.7 | 0.00 | 0.00 | 0.00 | 42 | 1019.6 |
| 20260506211403 | 64 | 118 | 0.0 | 0.0 | 0.00 | 0.00 | 0.00 | 47 | 1019.5 |
| 20260506210900 | 66 | 144 | 0.0 | 0.9 | 0.00 | 0.00 | 0.00 | 45 | 1019.2 |
| 20260506210356 | 64 | 181 | 0.0 | 0.0 | 0.00 | 0.00 | 0.00 | 45 | 1019.3 |
| 20260506205854 | 64 | 334 | 5.2 | 7.0 | 0.00 | 0.00 | 0.00 | 45 | 1019.6 |
| 20260506205349 | 64 | 147 | 0.0 | 0.0 | 0.00 | 0.00 | 0.00 | 47 | 1019.5 |
| 20260506204846 | 64 | 159 | 0.9 | 1.7 | 0.00 | 0.00 | 0.00 | 46 | 1019.5 |
| 20260506204344 | 64 | 114 | 1.7 | 1.7 | 0.00 | 0.00 | 0.00 | 44 | 1019.7 |
| 20260506203841 | 64 | 115 | 0.0 | 0.9 | 0.00 | 0.00 | 0.00 | 46 | 1019.7 |
| 20260506203338 | 64 | 314 | 0.9 | 1.7 | 0.00 | 0.00 | 0.00 | 45 | 1020.0 |
| 20260506202835 | 65 | 161 | 0.9 | 0.9 | 0.00 | 0.00 | 0.00 | 46 | 1019.8 |
| 20260506202332 | 65 | 118 | 0.9 | 1.7 | 0.00 | 0.00 | 0.00 | 46 | 1020.0 |
| 20260506201829 | 64 | 39 | 2.6 | 4.3 | 0.00 | 0.00 | 0.00 | 48 | 1020.0 |
| 20260506201326 | 63 | 183 | 0.0 | 0.9 | 0.00 | 0.00 | 0.00 | 51 | 1020.2 |
| 20260506200823 | 63 | 331 | 2.6 | 2.6 | 0.00 | 0.00 | 0.00 | 49 | 1020.3 |
| 20260506200319 | 63 | 114 | 0.9 | 0.9 | 0.00 | 0.00 | 0.00 | 48 | 1020.1 |
| 20260506195815 | 65 | 125 | 0.0 | 0.0 | 0.00 | 0.00 | 0.00 | 49 | 1020.2 |
| 20260506195313 | 63 | 121 | 0.0 | 0.9 | 0.00 | 0.00 | 0.00 | 48 | 1020.3 |
| 20260506194809 | 64 | 145 | 0.0 | 0.0 | 0.00 | 0.00 | 0.00 | 48 | 1020.3 |
| 20260506194306 | 64 | 125 | 0.9 | 0.9 | 0.00 | 0.00 | 0.00 | 47 | 1020.4 |
| 20260506193804 | 62 | 115 | 0.0 | 0.0 | 0.00 | 0.00 | 0.00 | 49 | 1020.3 |
| 20260506193300 | 64 | 287 | 2.6 | 4.3 | 0.00 | 0.00 | 0.00 | 47 | 1020.4 |
| 20260506192756 | 64 | 119 | 0.9 | 1.7 | 0.00 | 0.00 | 0.00 | 48 | 1020.6 |
| 20260506192253 | 62 | 130 | 0.0 | 0.0 | 0.00 | 0.00 | 0.00 | 48 | 1020.7 |
| 20260506191750 | 62 | 116 | 0.0 | 0.9 | 0.00 | 0.00 | 0.00 | 49 | 1020.3 |
| 20260506191246 | 62 | 127 | 0.0 | 0.0 | 0.00 | 0.00 | 0.00 | 50 | 1020.4 |
| 20260506190744 | 61 | 122 | 0.0 | 0.9 | 0.00 | 0.00 | 0.00 | 47 | 1020.6 |
| 20260506190240 | 63 | 102 | 0.9 | 1.7 | 0.00 | 0.00 | 0.00 | 50 | 1020.4 |
| 20260506185737 | 62 | 113 | 1.7 | 1.7 | 0.00 | 0.00 | 0.00 | 50 | 1020.5 |
| 20260506185234 | 63 | 136 | 2.6 | 2.6 | 0.00 | 0.00 | 0.00 | 47 | 1020.5 |
| 20260506184731 | 63 | 107 | 0.9 | 1.7 | 0.00 | 0.00 | 0.00 | 49 | 1020.5 |
| 20260506184228 | 61 | 118 | 0.0 | 0.0 | 0.00 | 0.00 | 0.00 | 55 | 1020.6 |